User: anonymous   Login
Location: Limoges
(45.8354°N, 1.2645°E)
Time: 05:55:33
(UTC+02:00)
Language:

Explorer 11/Cluster Stage 4 - Orbit

View from above orbital plane
View from above orbital plane
View from above satellite
View from above satellite

Ground track
Ground track

The orbit data is extracted from the following two-line orbital elements,

1 00107U 61013A   24194.30086813  .00006235  00000-0  78782-3 0  9999
2 00107  28.7867  43.9834 0520051  52.3236 312.3358 14.15562537176258
Epoch (UTC): 12 July 2024 07:13:15
Eccentricity: 0.0520051
inclination: 28.7867°
perigee height: 465 km
apogee height: 1216 km
right ascension of ascending node: 43.9834°
argument of perigee: 52.3236°
revolutions per day: 14.15562537
mean anomaly at epoch: 312.3358°
orbit number at epoch: 17625

The dashed part of the orbit path shows where the satellite is in the earth's shadow,  

DLR